Edinburgh Airport, United Kingdom

12:38 AM BST on March 27, 2017 (GMT +0100)
Edinburgh Airport

Weather History for EGPH - December, 2013

Change the Weather History Date:

Tuesday, December 31, 2013

  Actual Average Record
Temperature  
Mean Temperature 40 °F -  
Max Temperature 44 °F 43 °F 53 °F (1997)
Min Temperature 35 °F 33 °F 19 °F (2001)
Degree Days  
Heating Degree Days 26    
Moisture  
Dew Point 37 °F    
Average Humidity 83    
Maximum Humidity 93    
Minimum Humidity 71    
Precipitation  
Precipitation 0.00 in 0.07 in - ()
Sea Level Pressure  
Sea Level Pressure 29.33 in    
Wind  
Wind Speed 8 mph ()    
Max Wind Speed 20 mph    
Max Gust Speed 31 mph    
Visibility 6.2 miles    
Events Rain    
Averages and records for this station are not official NWS values.
T = Trace of Precipitation, MM = Missing Value Source: Averaged Metar Reports

Daily Weather History Graph

Daily Weather History Graph

Search for Another Location

Airport or City:

Trip Planner

Search our weather history database for the weather conditions in past years. The results will help you decide how hot, cold, wet, or windy it might be!

Date:

Astronomy

Dec. 31, 2013 Rise Set
Actual Time 8:44 AM GMT 3:48 PM GMT
Civil Twilight 7:57 AM GMT 4:35 PM GMT
Nautical Twilight 7:08 AM GMT 5:24 PM GMT
Astronomical Twilight 6:23 AM GMT 6:09 PM GMT
Moon 7:13 AM GMT (12/31) 3:18 PM GMT (12/31)
Length of Visible Light 8h 37m
Length of Day
7h 04m
Waning Crescent, 1% of the Moon is Illuminated
Dec 31
Waning Crescent
Jan 1
New
Jan 8
First Quarter
Jan 16
Full
Jan 24
Last Quarter

Hourly Weather History & Observations

Time (GMT) Temp. Windchill Dew Point Humidity Pressure Visibility Wind Dir Wind Speed Gust Speed Precip Events Conditions
12:20 AM 37.4 °F 31.4 °F 33.8 °F 87% 29.56 in - WSW 8.1 mph - N/A   Clear
12:50 AM 37.4 °F 32.8 °F 35.6 °F 93% 29.56 in - WSW 5.8 mph - N/A   Clear
1:20 AM 35.6 °F - 32.0 °F 87% 29.56 in - Variable 2.3 mph - N/A   Clear
1:50 AM 35.6 °F - 33.8 °F 93% 29.53 in - Calm Calm - N/A   Clear
2:20 AM 41.0 °F 38.0 °F 35.6 °F 81% 29.53 in 6.2 mi SW 4.6 mph - N/A   Partly Cloudy
2:50 AM 39.2 °F 34.2 °F 35.6 °F 87% 29.53 in 6.2 mi NE 6.9 mph - N/A   Partly Cloudy
3:20 AM 41.0 °F 39.0 °F 35.6 °F 81% 29.50 in - Variable 3.5 mph - N/A   Clear
3:50 AM 41.0 °F 39.0 °F 35.6 °F 81% 29.50 in - Variable 3.5 mph - N/A   Clear
4:20 AM 41.0 °F 33.9 °F 35.6 °F 81% 29.47 in - SE 12.7 mph - N/A   Clear
4:50 AM 41.0 °F 33.5 °F 37.4 °F 87% 29.44 in 6.2 mi ESE 13.8 mph - N/A   Scattered Clouds
5:20 AM 42.8 °F 35.8 °F 37.4 °F 81% 29.44 in 6.2 mi SE 13.8 mph - N/A   Partly Cloudy
5:50 AM 41.0 °F 36.4 °F 37.4 °F 87% 29.42 in 6.2 mi ESE 6.9 mph - N/A   Scattered Clouds
6:20 AM 41.0 °F 37.1 °F 37.4 °F 87% 29.39 in 6.2 mi ENE 5.8 mph - N/A   Mostly Cloudy
6:50 AM 44.6 °F 36.6 °F 39.2 °F 81% 29.36 in 6.2 mi SE 19.6 mph - N/A   Partly Cloudy
7:20 AM 44.6 °F 38.1 °F 39.2 °F 81% 29.36 in 6.2 mi SE 13.8 mph - N/A   Partly Cloudy
7:50 AM 44.6 °F 37.8 °F 39.2 °F 81% 29.36 in 6.2 mi SSE 15.0 mph - N/A   Unknown
8:20 AM 44.6 °F 37.8 °F 39.2 °F 81% 29.33 in - SE 15.0 mph - N/A   Clear
8:50 AM 44.6 °F 38.1 °F 39.2 °F 81% 29.33 in 6.2 mi ENE 13.8 mph - N/A   Partly Cloudy
9:20 AM 42.8 °F 36.2 °F 39.2 °F 87% 29.30 in 6.2 mi East 12.7 mph - N/A   Scattered Clouds
9:50 AM 44.6 °F 38.4 °F 39.2 °F 81% 29.27 in 6.2 mi East 12.7 mph - N/A   Mostly Cloudy
10:20 AM 44.6 °F 37.4 °F 39.2 °F 81% 29.27 in 6.2 mi ESE 16.1 mph - N/A   Mostly Cloudy
10:50 AM 44.6 °F 38.1 °F 41.0 °F 87% 29.27 in 6.2 mi East 13.8 mph - N/A Rain Light Rain
11:20 AM 44.6 °F 39.7 °F 41.0 °F 87% 29.24 in 6.2 mi East 9.2 mph - N/A Rain Light Rain
11:50 AM 44.6 °F 37.8 °F 39.2 °F 81% 29.27 in 6.2 mi SW 15.0 mph - N/A Rain Light Rain
12:20 PM 44.6 °F 38.1 °F 39.2 °F 81% 29.27 in 6.2 mi SW 13.8 mph - N/A   Partly Cloudy
12:50 PM 42.8 °F 36.6 °F 39.2 °F 87% 29.27 in 6.2 mi SSW 11.5 mph - N/A Rain Light Rain
1:20 PM 42.8 °F 36.2 °F 39.2 °F 87% 29.27 in 6.2 mi SSW 12.7 mph - N/A Rain Light Rain
1:50 PM 42.8 °F 37.0 °F 37.4 °F 81% 29.27 in 6.2 mi SSW 10.4 mph - N/A   Scattered Clouds
2:20 PM 44.6 °F 39.7 °F 37.4 °F 76% 29.24 in 6.2 mi South 9.2 mph - N/A   Scattered Clouds
2:50 PM 42.8 °F 36.6 °F 37.4 °F 81% 29.27 in 6.2 mi SSW 11.5 mph - N/A   Partly Cloudy
3:20 PM 42.8 °F 38.0 °F 35.6 °F 76% 29.27 in - SSW 8.1 mph - N/A   Clear
3:50 PM 41.0 °F 36.4 °F 35.6 °F 81% 29.27 in - SSW 6.9 mph - N/A   Clear
4:20 PM 41.0 °F 34.7 °F 35.6 °F 81% 29.24 in - South 10.4 mph - N/A   Clear
4:50 PM 41.0 °F 38.0 °F 33.8 °F 76% 29.24 in - East 4.6 mph - N/A   Clear
5:20 PM 41.0 °F 37.1 °F 35.6 °F 81% 29.24 in 6.2 mi SSE 5.8 mph - N/A   Partly Cloudy
5:50 PM 44.6 °F 40.7 °F 35.6 °F 71% 29.24 in 6.2 mi Variable 6.9 mph - N/A   Mostly Cloudy
6:20 PM 44.6 °F 36.6 °F 37.4 °F 76% 29.24 in 6.2 mi South 19.6 mph 31.1 mph N/A   Scattered Clouds
6:50 PM 42.8 °F 34.5 °F 37.4 °F 81% 29.24 in 6.2 mi South 18.4 mph 29.9 mph N/A   Partly Cloudy
7:20 PM 42.8 °F 34.5 °F 37.4 °F 81% 29.24 in 6.2 mi SSW 18.4 mph - N/A   Mostly Cloudy
7:50 PM 42.8 °F 35.4 °F 37.4 °F 81% 29.24 in 6.2 mi SSW 15.0 mph - N/A   Partly Cloudy
8:20 PM 42.8 °F 34.5 °F 37.4 °F 81% 29.24 in 6.2 mi SSW 18.4 mph - N/A   Partly Cloudy
8:50 PM 42.8 °F 36.2 °F 37.4 °F 81% 29.24 in 6.2 mi SSW 12.7 mph - N/A   Partly Cloudy
9:20 PM 41.0 °F 38.0 °F 35.6 °F 81% 29.27 in - WSW 4.6 mph - N/A   Clear
9:50 PM 39.2 °F 35.9 °F 33.8 °F 81% 29.27 in - NE 4.6 mph - N/A   Clear
10:20 PM 39.2 °F 33.6 °F 35.6 °F 87% 29.27 in 6.2 mi WSW 8.1 mph - N/A   Unknown
10:50 PM 37.4 °F 33.8 °F 33.8 °F 87% 29.27 in - East 4.6 mph - N/A   Clear
11:20 PM 39.2 °F 37.0 °F 33.8 °F 81% 29.27 in - Variable 3.5 mph - N/A   Clear
11:50 PM 37.4 °F - 33.8 °F 87% 29.27 in 6.2 mi Variable 2.3 mph - N/A   Scattered Clouds